Location: Heidgraben
(53.7081°N, 9.6576°E)
Time: 04:27:45
(UTC+00:00)

Cosmos 1959 Rocket - Pass Details

Date: 05 July 2020
Orbit: 948 x 996 km, 82.9° (Epoch: 06 August)

Event Time Altitude Azimuth Distance (km) Brightness Sun altitude
Exits shadow 23:06:19 19° 183° (S) 2,132 5.6 -13.5°
Maximum altitude 23:10:58 81° 97° (E) 981 4.5 -13.6°
Drops below altitude 10° 23:17:12 10° 12° (NNE) 2,726 8.2 -13.6°
Sets 23:19:44 0° 12° (NNE) 3,685 9.2 -13.6°
